STARLINK-3842 (52481 NORAD) Tracking and Keplerian Element Data

This shows tracking and keplerian element data for the satellite.

Feedback or suggestion? Click here.




ElementValue
Catalog52481
NameSTARLINK-3842
Epoch Orbit130
Epoch Day167.08334491
Epoch Year2022
RAAN64.991
Inclination53.2168
Eccentricity0.0001895
Argument of Perigee27.7487
Mean Anonmoly116.1095
Mean Motion15.7322298
Decay Rate0.0004039
L11 52481U 22049AG 22167.08334491 .00040390 00000+0 29052-3 0 9993
L22 52481 53.2168 64.9910 0001895 27.7487 116.1095 15.73222980 1300

Live tracking and technical data element details for STARLINK-3842 (NORAD 52481). STARLINK-3842 can be tracked NOW for your location showing map with azimuth and elevation plus other details from your city location.

Track the satellite on the map from your city or location and see movement details for azimuth, elevation, latitude, longitude, range, height, and movement on the map or in text.







IsCatalogInMostPopularTable: catalog: 52481, numindb: 1
Update: records affected: 1



GetName: 52481 STARLINK-3842

Hit Count: updated at: Mon, 27 Jun 2022 05:26:26 GMT